Home   Weather   Pond Inlet   Past weeks

Flag for Canada Past Weather in Pond Inlet, Nunavut, Canada — Yesterday and Last 2 Weeks

Now
-20 °F

Sunny.


Feels Like: -41 °F
Forecast: -26 / -24 °F
Wind: 10 mph from South

Location: Pond Inlet

Current Time: Feb 21, 2017 at 9:30:30 am

Latest Report: Feb 21, 2017 at 8:00 am


Visibility: 9 mi

Pressure: 30.13 "Hg

Humidity: 75%

Dew Point: -26 °F

Location of Pond InletLocation

Past Weather in Pond Inlet — Graph

°F

Pond Inlet Temperature Yesterday

Maximum temperature yesterday: -17 °F (at 12:00 am)
Minimum temperature yesterday: -24 °F (at 9:00 am)
Average temperature yesterday: -21 °F

High & Low Weather Summary for the Past Weeks

 TemperatureHumidityPressure
High-4 °F (Feb 19, 8:00 am)84% (Feb 8, 9:00 am)30.41 "Hg (Feb 8, 9:00 am)
Low-42 °F (Feb 16, 8:25 am)58% (Feb 14, 8:00 am)29.27 "Hg (Feb 8, 12:00 am)
Average-24 °F72%29.91 "Hg
* Reported Feb 6 8:00 am — Feb 21 8:00 am, Pond Inlet, Weather by CustomWeather, © 2017

Note: Actual official high and low records may vary slightly from our data, if they occured in-between our weather recording intervals... More about our weather records

Advertising

Pond Inlet Weather History for the Previous 24 Hours

Scroll right to see more
 ConditionsComfort  
Time TempWeatherWind HumidityBarometerVisibility
8:00 am
Tue, Feb 21
-20 °FSunny.10 mph75%30.13 "Hg9 mi
7:00 am-24 °FSunny.7 mph68%30.14 "Hg9 mi
6:00 am-20 °FClear.7 mph68%30.14 "Hg9 mi
5:00 am-22 °FClear.13 mph75%30.13 "Hg9 mi
4:00 am-20 °FClear.15 mph68%30.13 "Hg9 mi
3:00 am-22 °FClear.16 mph68%30.13 "Hg9 mi
2:00 am-20 °FClear.16 mph68%30.11 "Hg9 mi
1:00 am-20 °FClear.17 mph68%30.11 "Hg9 mi
12:00 am-22 °FClear.14 mph68%30.11 "Hg9 mi
11:00 pm
Mon, Feb 20
-20 °FClear.16 mph75%30.09 "Hg9 mi
10:00 pm-20 °FClear.15 mph68%30.09 "Hg9 mi
9:00 pm-24 °FClear.18 mph68%30.08 "Hg9 mi
8:00 pm-24 °FClear.16 mph68%30.08 "Hg9 mi
7:00 pm-24 °FClear.17 mph68%30.08 "Hg9 mi
6:00 pm-22 °FPassing clouds.16 mph75%30.07 "Hg15 mi
5:00 pm-22 °FPassing clouds.16 mph75%30.06 "Hg20 mi
4:00 pm-24 °FPassing clouds.14 mph68%30.04 "Hg20 mi
3:00 pm-24 °FPassing clouds.12 mph68%30.03 "Hg20 mi
2:00 pm-24 °FPassing clouds.15 mph75%30.01 "Hg20 mi
1:00 pm-22 °FPassing clouds.15 mph68%30.00 "Hg20 mi
12:00 pm-22 °FPassing clouds.12 mph75%29.99 "Hg20 mi
11:00 am-24 °FPassing clouds.9 mph75%29.97 "Hg20 mi
10:00 am-22 °FSunny.9 mph75%29.96 "Hg9 mi
9:00 am-24 °FSunny.7 mph68%29.95 "Hg9 mi
Weather by CustomWeather, © 2017

See weather overviewHow to use our weather pages